GLOBALSTAR M092

Last updated on Sun Jun 21 2026 00:03:18 GMT+0000 (Coordinated Universal Time)

1 38043U 11080D 26171.18336485 -.00000091 00000+0 70590-4 0 9998 2 38043 52.0094 55.7781 0000751 67.9038 105.6882 12.62267042668427
UTC large
Height (km)
Speed (km/s)
/
Latitude / Longitude
Inclination (degrees)
Orbital Period (minutes)
Azimuth
Elevation
Range (km)
Doppler Factor

Next 0 passes for location: London (51.5072 / 0.1276)

No passes found over London.
GLOBALSTAR M092